#timestamp,LO_Frequency,Hit,StdDev 
1561050015.8,286047002.3,N
1561050035.6,286047002.5,N
1561050055.5,286047002.1,N
1561050075.3,286047003.4,N
1561050095.1,286047005.4,N
1561050115.9,286047007.4,Y
1561050135.7,286047006.1,P
1561050155.5,286047008.7,N
1561050175.4,286047006.3,N
1561050195.2,286047006.9,N
1561050215.0,286047007.2,N
1561050215.9,286047007.2,N
1561050235.8,286047004.9,N
1561050255.6,286047006.0,N
1561050275.4,286047002.7,N
1561050295.3,286047000.2,N
1561050315.1,286047001.0,N
1561050316.0,286047001.0,N
1561050335.8,286047001.0,N
1561050355.7,286046996.7,N
1561050375.5,286046996.8,N
1561050395.3,286046998.0,N
1561050415.2,286046995.8,N
1561050435.9,286046993.3,N
1561050455.7,286046996.1,N
1561050475.6,286046997.3,N
1561050495.4,286046997.6,N
1561050515.2,286046996.8,N
1561050535.1,286046996.7,N
1561050536.0,286046996.7,N
1561050555.8,286047000.9,N
1561050575.6,286047002.7,N
1561050595.5,286047000.2,N
1561050615.3,286047000.7,N
1561050635.1,286047002.3,N
1561050655.9,286047000.7,N
1561050675.7,286047000.4,N
1561050695.5,286046998.3,N
1561050715.4,286046997.4,N
1561050735.2,286046997.6,N
1561050755.0,286046996.1,N
1561050755.9,286046996.1,N
1561050775.8,286046993.3,N
1561050795.6,286046994.6,N
1561050815.4,286046995.6,N
1561050835.3,286046999.1,N
1561050855.1,286046999.3,N
1561050856.0,286046999.3,N
1561050875.8,286046999.3,N
1561050895.7,286046999.4,N
1561050915.5,286047000.6,N
1561050935.3,286047002.7,N
1561050955.2,286047002.3,N
1561050975.9,286047002.7,N
1561050995.7,286047002.2,N
1561051015.6,286047001.7,N
1561051035.4,286047003.0,N
1561051055.2,286047003.5,N
1561051075.1,286047001.7,N
1561051076.0,286047001.7,N
1561051095.8,286047002.1,N
1561051115.6,286047002.1,N
1561051135.5,286047001.8,N
1561051155.3,286047002.1,N
1561051175.1,286047001.4,N
1561051195.9,286047003.2,N
1561051215.7,286047006.0,N
1561051235.5,286047004.1,N
1561051255.4,286047005.2,N
1561051275.2,286047006.0,N
1561051295.0,286047004.7,N
1561051295.9,286047004.7,N
1561051315.8,286047004.9,N
1561051335.6,286047005.9,N
1561051355.4,286047005.7,N
1561051375.3,286047005.2,N
1561051395.1,286047007.6,Y
1561051415.8,286047003.5,P
1561051435.7,286047005.5,P
1561051455.5,286047002.9,N
1561051475.4,286047005.8,Y
1561051495.2,286047002.3,P
1561051515.0,286047002.1,P
1561051515.9,286047002.1,N
1561051535.8,286047004.3,Y
1561051555.6,286046999.7,P
1561051575.4,286047001.0,N
1561051595.3,286046996.8,N
1561051615.1,286046997.6,N
1561051616.0,286046997.6,N
1561051635.8,286046996.8,N
1561051655.7,286046997.4,N
1561051675.5,286046995.4,N
1561051695.3,286046997.7,N
1561051715.2,286046995.7,N
1561051735.9,286046995.6,N
1561051755.7,286046995.0,N
1561051775.6,286046995.7,N
1561051795.4,286046995.3,N
1561051815.2,286046995.2,N
1561051835.1,286046996.1,N
1561051836.0,286046996.1,N
1561051855.8,286046997.7,N
1561051875.6,286046996.5,N
1561051895.5,286046996.6,N
1561051915.3,286046996.9,N
1561051935.1,286046996.9,N
1561051955.9,286046999.3,N
1561051975.7,286046996.9,N
1561051995.5,286046996.7,N
1561052015.4,286046997.5,N
1561052035.2,286046997.3,N
1561052055.0,286046997.4,N
1561052055.9,286046997.4,N
1561052075.8,286046994.9,Y
1561052095.6,286047002.8,P
1561052115.4,286047003.8,N
1561052135.3,286047003.7,N
1561052155.1,286047005.2,N
1561052156.0,286047005.2,N
1561052175.8,286047005.4,N
1561052195.7,286047005.8,N
1561052215.5,286047003.5,N
1561052235.3,286047003.5,N
1561052255.2,286047003.3,N
1561052275.9,286047004.2,N
1561052295.7,286047003.6,N
1561052315.5,286047001.3,N
1561052335.4,286047004.4,N
1561052355.2,286047004.1,N
1561052375.0,286047003.6,N
1561052375.9,286047003.6,N
1561052395.8,286047003.2,N
1561052415.6,286047003.9,N
1561052435.4,286047003.5,N
1561052455.3,286047002.9,N
1561052475.1,286047007.1,Y
1561052495.9,286047005.3,P
1561052515.7,286047003.4,P
1561052535.5,286047001.3,N
1561052555.4,286047004.6,Y
1561052575.2,286047001.9,P
1561052595.0,286047003.6,P
1561052595.9,286047003.6,P
1561052615.8,286047003.4,Y
1561052635.6,286047001.7,P
1561052655.4,286047004.4,P
1561052675.3,286047003.6,P
1561052695.1,286047002.1,N
1561052696.0,286047002.1,N
1561052715.8,286047003.0,Y
1561052735.7,286046999.8,P
1561052755.5,286047002.5,N
1561052775.3,286047002.7,N
1561052795.2,286046999.8,N
1561052815.9,286047003.7,N
1561052835.7,286047003.1,N
1561052855.6,286047003.6,N
1561052875.4,286047005.2,Y
1561052895.2,286047001.6,P
1561052915.1,286047006.0,P
1561052916.0,286047006.0,P
1561052935.8,286047003.3,N
1561052955.6,286047006.0,Y
1561052975.5,286047000.9,P
1561052995.3,286047000.8,N
1561053015.1,286046999.2,N
1561053035.9,286046999.1,N
1561053055.7,286046995.8,N
1561053075.5,286046996.3,N
1561053095.4,286046993.3,N
1561053115.2,286046993.4,N
1561053135.0,286046993.7,N
1561053135.9,286046993.7,N
1561053155.8,286046994.8,N
1561053175.6,286046994.0,N
1561053195.4,286046996.0,N
1561053215.3,286046994.1,N
1561053235.1,286046993.6,N
1561053236.0,286046993.6,N
1561053255.8,286046993.6,N
1561053275.7,286046994.0,N
1561053295.5,286046992.1,N
1561053315.3,286046991.9,N
1561053335.1,286046993.7,N
1561053355.9,286046993.7,N
1561053375.7,286046996.3,N
1561053395.5,286046996.2,N
1561053415.4,286046993.4,N
1561053435.2,286046993.4,N
1561053455.0,286046996.2,N
1561053455.9,286046996.2,N
1561053475.8,286046996.3,N
1561053495.6,286046994.5,N
1561053515.4,286046991.9,Y
1561053535.3,286046997.7,P
1561053555.1,286046995.0,P
1561053575.8,286046995.4,P
1561053595.7,286046995.0,Y
